W0DXV Weather Reports


Display with metric or nautical units.
time (UTC)temp
F
wind
direction
speed
MPH
gust
MPH
rain 1hr
in
rain 24hr
in
rain mn
in
humidity
%
barometer
mb
20260502170442 57 328 2.0 5.0 0.00 0.00 0.00 44 1009.9
20260502163925 56 38 1.0 1.0 0.00 0.00 0.00 49 1010.3
20260502163421 57 27 4.0 5.0 0.00 0.00 0.00 52 1010.2
20260502162920 57 27 2.0 3.0 0.00 0.00 0.00 52 1010.3
20260502162416 56 25 3.0 3.0 0.00 0.00 0.00 52 1010.3
20260502161913 57 351 4.0 6.0 0.00 0.00 0.00 51 1010.5
20260502161409 56 338 1.0 1.0 0.00 0.00 0.00 54 1010.6
20260502160907 55 7 2.0 2.0 0.00 0.00 0.00 54 1010.6
20260502160405 56 103 4.0 5.0 0.00 0.00 0.00 55 1010.4
20260502152340 54 40 0.0 1.0 0.00 0.00 0.00 63 1011.1
20260502151838 54 31 3.0 3.0 0.00 0.00 0.00 62 1011.0
20260502151334 54 50 0.0 0.0 0.00 0.00 0.00 64 1010.8
20260502150832 55 47 3.0 3.0 0.00 0.00 0.00 61 1010.9
20260502150328 55 288 1.0 1.0 0.00 0.00 0.00 63 1010.8
20260502130716 54 3 0.0 0.0 0.00 0.00 0.00 73 1010.1
20260502130214 54 47 2.0 2.0 0.00 0.00 0.00 73 1010.0
20260502123700 54 316 1.0 1.0 0.00 0.00 0.00 72 1010.0
20260502123156 54 273 0.0 1.0 0.00 0.00 0.00 71 1009.9
20260502122653 54 133 0.0 1.0 0.00 0.00 0.00 71 1009.6
20260502122149 54 32 0.0 1.0 0.00 0.00 0.00 71 1009.2
20260502121648 54 29 2.0 2.0 0.00 0.00 0.00 71 1009.2
20260502121145 54 55 1.0 2.0 0.00 0.00 0.00 71 1009.0
20260502120641 54 20 1.0 1.0 0.00 0.00 0.00 71 1009.7
20260502120138 54 58 1.0 1.0 0.00 0.00 0.00 70 1009.7
20260502115636 54 319 1.0 1.0 0.00 0.00 0.00 70 1009.8
20260502115132 54 27 0.0 0.0 0.00 0.00 0.00 70 1009.5
20260502114628 54 325 1.0 1.0 0.00 0.00 0.00 69 1009.5
20260502114126 54 47 1.0 1.0 0.00 0.00 0.00 69 1009.4
20260502113623 54 18 1.0 1.0 0.00 0.00 0.00 68 1009.6
20260502113121 54 242 1.0 1.0 0.00 0.00 0.00 69 1009.4
20260502112619 54 21 0.0 1.0 0.00 0.00 0.00 68 1009.5
20260502112116 54 47 1.0 1.0 0.00 0.00 0.00 68 1009.1
20260502111613 54 310 1.0 1.0 0.00 0.00 0.00 68 1009.1
20260502111110 54 55 3.0 3.0 0.00 0.00 0.00 68 1009.0
20260502110608 54 62 1.0 1.0 0.00 0.00 0.00 69 1009.1
20260502110106 54 352 2.0 2.0 0.00 0.00 0.00 69 1009.0
20260502105603 54 48 2.0 2.0 0.00 0.00 0.00 70 1009.0
20260502105100 54 52 3.0 5.0 0.00 0.00 0.00 71 1008.9
20260502104556 54 34 1.0 2.0 0.00 0.00 0.00 72 1009.1
20260502104054 54 92 2.0 3.0 0.00 0.00 0.00 72 1009.1
20260502103552 54 22 1.0 2.0 0.00 0.00 0.00 73 1009.0
20260502103050 54 56 2.0 2.0 0.00 0.00 0.00 73 1009.0
20260502102546 54 75 1.0 1.0 0.00 0.00 0.00 73 1008.8
20260502102043 54 25 2.0 2.0 0.00 0.00 0.00 73 1008.9
20260502101541 54 1 0.0 1.0 0.00 0.00 0.00 74 1008.9
20260502101039 54 36 3.0 3.0 0.00 0.00 0.00 74 1009.2
20260502100537 54 46 1.0 3.0 0.00 0.00 0.00 75 1008.9
20260502091512 52 84 0.0 0.0 0.00 0.00 0.00 90 1009.7
20260502091009 52 84 0.0 0.0 0.00 0.00 0.00 91 1009.8
20260502090506 52 255 0.0 0.0 0.00 0.00 0.00 93 1009.8
20260502071401 53 272 0.0 0.0 0.00 0.00 0.00 90 1008.5
20260502070859 53 272 0.0 0.0 0.00 0.00 0.00 90 1008.5
20260502070356 53 273 0.0 1.0 0.00 0.00 0.00 90 1008.3
20260502065855 53 232 0.0 0.0 0.00 0.00 0.00 90 1008.4
20260502065353 53 232 0.0 0.0 0.00 0.00 0.00 90 1008.4
20260502064850 53 232 1.0 1.0 0.00 0.00 0.00 90 1008.5
20260502064348 53 247 1.0 1.0 0.00 0.00 0.00 88 1008.6
20260502063845 53 344 0.0 1.0 0.00 0.00 0.00 88 1008.8
20260502063343 53 246 0.0 0.0 0.00 0.00 0.00 89 1008.9
20260502062840 53 290 1.0 1.0 0.00 0.00 0.00 88 1008.7
20260502062337 53 9 1.0 1.0 0.00 0.00 0.00 89 1008.8
20260502061836 52 94 1.0 1.0 0.00 0.00 0.00 90 1008.9
20260502061333 52 17 1.0 1.0 0.00 0.00 0.00 91 1009.1
20260502060829 52 1 3.0 5.0 0.00 0.00 0.00 92 1009.1
20260502060324 52 217 0.0 1.0 0.00 0.00 0.00 92 1008.4
20260502055822 52 217 0.0 0.0 0.00 0.00 0.00 92 1008.7
20260502055319 52 217 0.0 0.0 0.00 0.00 0.00 92 1008.6
20260502054814 52 217 0.0 0.0 0.00 0.00 0.00 92 1008.7
20260502054311 52 217 0.0 0.0 0.00 0.00 0.00 92 1008.7
20260502053808 52 217 0.0 0.0 0.00 0.00 0.00 92 1008.7
20260502053305 52 217 0.0 0.0 0.00 0.00 0.00 92 1008.6
20260502052803 52 217 0.0 0.0 0.00 0.00 0.00 91 1008.5
20260502052301 52 217 0.0 0.0 0.00 0.00 0.00 91 1008.8
20260502051758 52 217 0.0 0.0 0.00 0.00 0.00 91 1008.8
20260502051257 52 217 0.0 0.0 0.00 0.00 0.00 91 1008.7
20260502050753 52 216 0.0 0.0 0.00 0.00 0.00 91 1008.6
20260502050249 52 216 0.0 0.0 0.00 0.00 0.00 91 1008.7
20260502045746 52 216 0.0 0.0 0.00 0.00 0.00 91 1008.7
20260502045243 52 216 0.0 0.0 0.00 0.00 0.00 91 1008.9
20260502044740 52 216 0.0 0.0 0.00 0.00 0.00 90 1008.9
20260502044236 52 217 0.0 0.0 0.00 0.00 0.00 90 1009.0
20260502043734 52 217 0.0 0.0 0.00 0.00 0.00 90 1009.0
20260502043231 52 217 0.0 0.0 0.00 0.00 0.00 90 1008.9
20260502042730 52 217 0.0 1.0 0.00 0.00 0.00 90 1008.7
20260502042228 52 216 0.0 0.0 0.00 0.00 0.00 89 1009.1
20260502041725 52 216 0.0 0.0 0.00 0.00 0.00 89 1008.8
20260502041223 52 217 0.0 0.0 0.00 0.00 0.00 89 1008.9
20260502040720 52 216 0.0 0.0 0.00 0.00 0.00 88 1008.9
20260502040216 52 216 0.0 0.0 0.00 0.00 0.00 88 1008.8
20260502035712 52 216 0.0 0.0 0.00 0.00 0.00 88 1008.9
20260502035209 53 216 0.0 0.0 0.00 0.00 0.00 87 1009.0
20260502034707 53 216 0.0 0.0 0.00 0.00 0.00 87 1009.0
20260502034205 53 216 0.0 0.0 0.00 0.00 0.00 86 1009.2
20260502033703 53 216 0.0 0.0 0.00 0.00 0.00 86 1009.2
20260502033201 53 216 0.0 0.0 0.00 0.00 0.00 86 1009.4
20260502032656 53 216 0.0 0.0 0.00 0.00 0.00 85 1009.2
20260502032152 53 216 0.0 0.0 0.00 0.00 0.00 85 1009.3
20260502031651 53 216 0.0 0.0 0.00 0.00 0.00 85 1009.4
20260502031148 53 216 0.0 0.0 0.00 0.00 0.00 84 1009.2
20260502030647 54 216 0.0 0.0 0.00 0.00 0.00 84 1009.5
20260502030145 54 216 0.0 0.0 0.00 0.00 0.00 83 1009.6
20260502025641 54 216 0.0 0.0 0.00 0.00 0.00 83 1009.3
20260502025139 54 216 0.0 0.0 0.00 0.00 0.00 83 1009.4
20260502024637 54 216 0.0 0.0 0.00 0.00 0.00 82 1009.4
20260502024135 54 216 0.0 0.0 0.00 0.00 0.00 82 1009.3
20260502023633 54 217 1.0 1.0 0.00 0.00 0.00 81 1009.3
20260502023130 55 215 0.0 0.0 0.00 0.00 0.00 81 1009.3
20260502022626 55 216 0.0 0.0 0.00 0.00 0.00 80 1009.5
20260502022124 55 216 0.0 0.0 0.00 0.00 0.00 80 1009.5
20260502021621 55 216 0.0 0.0 0.00 0.00 0.00 80 1009.3
20260502021118 55 216 0.0 1.0 0.00 0.00 0.00 80 1009.3
20260502020616 55 216 0.0 0.0 0.00 0.00 0.00 79 1009.0
20260502020112 55 215 0.0 1.0 0.00 0.00 0.00 79 1009.2
20260502015610 56 215 0.0 0.0 0.00 0.00 0.00 78 1009.2
20260502015106 56 238 0.0 0.0 0.00 0.00 0.00 78 1009.0
20260502014603 56 217 0.0 0.0 0.00 0.00 0.00 77 1009.2
20260502014100 56 215 0.0 0.0 0.00 0.00 0.00 76 1009.4
20260502013555 56 241 0.0 0.0 0.00 0.00 0.00 76 1009.4
20260502013052 57 243 0.0 0.0 0.00 0.00 0.00 77 1009.3
20260502012550 57 247 0.0 0.0 0.00 0.00 0.00 77 1009.4
20260502012047 57 201 0.0 0.0 0.00 0.00 0.00 76 1009.4
20260502011544 57 229 0.0 0.0 0.00 0.00 0.00 75 1009.3
20260502011040 57 231 0.0 1.0 0.00 0.00 0.00 75 1009.3
20260502010538 57 232 0.0 1.0 0.00 0.00 0.00 75 1009.2
20260502010033 58 253 1.0 1.0 0.00 0.00 0.00 75 1009.0
20260502005532 58 229 0.0 0.0 0.00 0.00 0.00 75 1009.0
20260502005029 58 229 0.0 1.0 0.00 0.00 0.00 74 1009.0
20260502004525 58 231 0.0 0.0 0.00 0.00 0.00 75 1008.8
20260502004022 59 229 0.0 0.0 0.00 0.00 0.00 74 1008.5
20260502003520 59 230 0.0 0.0 0.00 0.00 0.00 74 1008.7
20260502003016 59 230 0.0 0.0 0.00 0.00 0.00 74 1008.2
20260502002513 59 230 0.0 1.0 0.00 0.00 0.00 73 1008.3
20260502002010 59 229 0.0 0.0 0.00 0.00 0.00 73 1008.2
20260502001508 60 230 1.0 1.0 0.00 0.00 0.00 72 1008.1
20260502001005 60 217 0.0 0.0 0.00 0.00 0.00 71 1008.2
20260502000503 60 217 0.0 1.0 0.00 0.00 0.00 72 1008.0
20260501235959 60 217 0.0 0.0 0.00 0.00 0.00 69 1007.9
20260501235455 61 236 1.0 1.0 0.00 0.00 0.00 70 1007.8
20260501234950 61 234 1.0 1.0 0.00 0.00 0.00 68 1007.8
20260501234447 61 236 1.0 1.0 0.00 0.00 0.00 69 1007.6
20260501233946 62 231 0.0 1.0 0.00 0.00 0.00 67 1007.4
20260501233443 62 229 0.0 1.0 0.00 0.00 0.00 67 1007.8
20260501232939 62 237 0.0 1.0 0.00 0.00 0.00 67 1007.8
20260501232436 62 238 1.0 2.0 0.00 0.00 0.00 65 1007.8
20260501231933 62 229 0.0 0.0 0.00 0.00 0.00 65 1007.7
20260501231432 63 230 2.0 2.0 0.00 0.00 0.00 63 1008.0
20260501230929 63 183 0.0 0.0 0.00 0.00 0.00 63 1007.8
20260501230428 63 194 0.0 1.0 0.00 0.00 0.00 62 1008.0
20260501225925 63 220 1.0 1.0 0.00 0.00 0.00 62 1007.9
20260501225423 63 140 2.0 2.0 0.00 0.00 0.00 60 1007.8
20260501224918 63 241 1.0 1.0 0.00 0.00 0.00 60 1008.0
20260501224416 63 236 0.0 0.0 0.00 0.00 0.00 61 1007.8
20260501223912 63 236 1.0 1.0 0.00 0.00 0.00 58 1007.8
20260501223409 64 166 1.0 2.0 0.00 0.00 0.00 57 1007.7
20260501222904 64 230 2.0 2.0 0.00 0.00 0.00 56 1007.8
20260501222402 64 228 0.0 0.0 0.00 0.00 0.00 58 1007.8
20260501221858 64 243 1.0 1.0 0.00 0.00 0.00 57 1008.0
20260501221355 64 233 1.0 1.0 0.00 0.00 0.00 55 1007.9
20260501220854 64 279 1.0 1.0 0.00 0.00 0.00 56 1007.9
20260501220350 65 246 1.0 2.0 0.00 0.00 0.00 54 1007.9
20260501215847 65 204 1.0 1.0 0.00 0.00 0.00 54 1007.9
20260501215343 64 226 0.0 0.0 0.00 0.00 0.00 55 1008.2
20260501214839 65 237 1.0 2.0 0.00 0.00 0.00 54 1007.9
20260501214334 65 180 3.0 3.0 0.00 0.00 0.00 53 1008.0
20260501213830 65 273 2.0 2.0 0.00 0.00 0.00 53 1008.2
20260501213327 65 273 1.0 1.0 0.00 0.00 0.00 54 1007.9
20260501212823 66 220 3.0 3.0 0.00 0.00 0.00 57 1007.9
20260501212320 66 235 2.0 2.0 0.00 0.00 0.00 52 1008.2
20260501211817 66 238 0.0 1.0 0.00 0.00 0.00 53 1008.4
20260501211314 66 244 1.0 1.0 0.00 0.00 0.00 50 1008.1
20260501210811 67 223 1.0 2.0 0.00 0.00 0.00 49 1008.3
20260501210308 67 210 1.0 1.0 0.00 0.00 0.00 48 1008.0
20260501205804 67 244 0.0 0.0 0.00 0.00 0.00 51 1008.2
20260501205305 67 254 1.0 2.0 0.00 0.00 0.00 51 1008.1
20260501204758 67 163 1.0 2.0 0.00 0.00 0.00 49 1008.1
20260501204255 68 240 3.0 3.0 0.00 0.00 0.00 50 1008.0
20260501203751 68 120 2.0 2.0 0.00 0.00 0.00 48 1008.1
20260501203249 68 268 1.0 2.0 0.00 0.00 0.00 49 1008.0
20260501202745 68 281 2.0 2.0 0.00 0.00 0.00 48 1008.1
20260501202242 69 286 2.0 3.0 0.00 0.00 0.00 47 1008.3
20260501201739 69 236 1.0 1.0 0.00 0.00 0.00 48 1008.5
20260501201236 68 236 1.0 1.0 0.00 0.00 0.00 49 1008.4
20260501200733 69 212 2.0 3.0 0.00 0.00 0.00 46 1008.3
20260501200230 68 232 1.0 2.0 0.00 0.00 0.00 47 1008.5
20260501195727 69 233 1.0 2.0 0.00 0.00 0.00 47 1008.7
20260501195223 70 242 3.0 3.0 0.00 0.00 0.00 45 1008.7
20260501194719 70 248 1.0 1.0 0.00 0.00 0.00 44 1008.7
20260501194215 69 300 2.0 2.0 0.00 0.00 0.00 46 1008.8
20260501193712 69 230 1.0 1.0 0.00 0.00 0.00 45 1008.9
20260501193210 68 246 1.0 1.0 0.00 0.00 0.00 44 1009.1
20260501192707 69 246 1.0 1.0 0.00 0.00 0.00 47 1009.3
20260501192204 68 255 0.0 1.0 0.00 0.00 0.00 45 1009.2
20260501191701 68 130 1.0 1.0 0.00 0.00 0.00 46 1009.4
20260501191158 71 273 2.0 2.0 0.00 0.00 0.00 43 1009.4
20260501190649 71 271 1.0 1.0 0.00 0.00 0.00 41 1009.7
20260501190144 71 237 1.0 1.0 0.00 0.00 0.00 42 1009.6
20260501185640 70 239 1.0 1.0 0.00 0.00 0.00 43 1009.7
20260501185137 70 239 2.0 3.0 0.00 0.00 0.00 43 1009.9
20260501184633 69 212 1.0 1.0 0.00 0.00 0.00 40 1010.0
20260501184127 69 233 0.0 1.0 0.00 0.00 0.00 43 1009.9
20260501183625 69 236 3.0 3.0 0.00 0.00 0.00 44 1009.9
20260501183121 68 253 1.0 1.0 0.00 0.00 0.00 44 1009.8
20260501182618 69 130 3.0 3.0 0.00 0.00 0.00 44 1009.9
20260501182115 69 91 0.0 1.0 0.00 0.00 0.00 42 1010.0
20260501181612 69 224 2.0 3.0 0.00 0.00 0.00 43 1010.0
20260501181109 68 206 1.0 1.0 0.00 0.00 0.00 43 1010.3
20260501180607 67 36 1.0 2.0 0.00 0.00 0.00 45 1010.2
20260501175600 68 290 1.0 1.0 0.00 0.00 0.00 43 1010.5
20260501175056 67 126 2.0 2.0 0.00 0.00 0.00 42 1010.6
20260501174553 66 236 1.0 2.0 0.00 0.00 0.00 44 1010.6
20260501174051 64 350 1.0 1.0 0.00 0.00 0.00 45 1010.6
20260501173548 64 152 3.0 5.0 0.00 0.00 0.00 45 1010.8
20260501173044 66 165 1.0 1.0 0.00 0.00 0.00 45 1010.7
20260501172540 66 200 2.0 2.0 0.00 0.00 0.00 43 1010.8
20260501172036 65 170 2.0 3.0 0.00 0.00 0.00 44 1010.7
20260501171532 66 272 2.0 3.0 0.00 0.00 0.00 45 1010.6